| time (UTC) | temp F | wind direction | speed knots | gust knots | rain 1hr in | rain 24hr in | rain mn in | humidity % | barometer mb |
| 20260902231005 | 88 | 268 | 0.9 | 1.7 | 0.00 | 0.00 | 0.00 | 73 | 1013.7 |
| 20260902230005 | 88 | 268 | 0.9 | 1.7 | 0.00 | 0.00 | 0.00 | 72 | 1013.5 |
| 20260902225505 | 88 | 268 | 0.9 | 1.7 | 0.00 | 0.00 | 0.00 | 71 | 1013.6 |
| 20260902225006 | 88 | 250 | 0.9 | 2.6 | 0.00 | 0.00 | 0.00 | 71 | 1013.6 |
| 20260902224505 | 88 | 247 | 1.7 | 2.6 | 0.00 | 0.00 | 0.00 | 69 | 1013.5 |
| 20260902224005 | 89 | 245 | 1.7 | 2.6 | 0.00 | 0.00 | 0.00 | 69 | 1013.4 |
| 20260902222505 | 89 | 202 | 3.5 | 6.1 | 0.00 | 0.00 | 0.00 | 67 | 1013.0 |
| 20260902222006 | 90 | 180 | 3.5 | 7.0 | 0.00 | 0.00 | 0.00 | 66 | 1013.0 |
| 20260902221005 | 90 | 200 | 1.7 | 2.6 | 0.00 | 0.00 | 0.00 | 65 | 1013.4 |
| 20260902215505 | 90 | 223 | 1.7 | 2.6 | 0.00 | 0.00 | 0.00 | 63 | 1013.5 |
| 20260902215005 | 90 | 232 | 1.7 | 2.6 | 0.00 | 0.00 | 0.00 | 60 | 1013.5 |
| 20260902211505 | 94 | 288 | 2.6 | 6.1 | 0.00 | 0.00 | 0.00 | 55 | 1013.7 |
| 20260902210005 | 96 | 292 | 3.5 | 7.0 | 0.00 | 0.00 | 0.00 | 52 | 1013.7 |
| 20260902205005 | 97 | 301 | 3.5 | 6.1 | 0.00 | 0.00 | 0.00 | 52 | 1013.9 |
| 20260902204504 | 96 | 311 | 4.3 | 7.0 | 0.00 | 0.00 | 0.00 | 52 | 1013.9 |
| 20260902203006 | 94 | 276 | 3.5 | 7.0 | 0.00 | 0.00 | 0.00 | 54 | 1013.9 |
| 20260902202005 | 94 | 236 | 5.2 | 7.8 | 0.00 | 0.00 | 0.00 | 53 | 1014.0 |
| 20260902200505 | 96 | 208 | 4.3 | 6.1 | 0.00 | 0.00 | 0.00 | 55 | 1013.9 |
| 20260902200005 | 95 | 192 | 3.5 | 7.0 | 0.00 | 0.00 | 0.00 | 54 | 1013.8 |
| 20260902194504 | 96 | 229 | 5.2 | 8.7 | 0.00 | 0.00 | 0.00 | 53 | 1014.2 |
| 20260902193005 | 96 | 242 | 5.2 | 11.3 | 0.00 | 0.00 | 0.00 | 56 | 1014.2 |
| 20260902192504 | 95 | 242 | 5.2 | 7.0 | 0.00 | 0.00 | 0.00 | 57 | 1014.3 |
| 20260902192005 | 95 | 213 | 4.3 | 10.4 | 0.00 | 0.00 | 0.00 | 55 | 1014.2 |
| 20260902191005 | 94 | 244 | 7.0 | 10.4 | 0.00 | 0.00 | 0.00 | 53 | 1014.3 |
| 20260902190005 | 94 | 212 | 7.0 | 11.3 | 0.00 | 0.00 | 0.00 | 56 | 1014.3 |
| 20260902185505 | 94 | 218 | 4.3 | 7.0 | 0.00 | 0.00 | 0.00 | 56 | 1014.2 |
| 20260902185004 | 93 | 208 | 7.0 | 11.3 | 0.00 | 0.00 | 0.00 | 53 | 1014.4 |
| 20260902184004 | 95 | 223 | 4.3 | 8.7 | 0.00 | 0.00 | 0.00 | 58 | 1014.4 |
| 20260902183505 | 94 | 253 | 6.1 | 10.4 | 0.00 | 0.00 | 0.00 | 54 | 1014.4 |
| 20260902181005 | 93 | 233 | 4.3 | 7.0 | 0.00 | 0.00 | 0.00 | 56 | 1014.6 |
| 20260902180505 | 93 | 251 | 6.1 | 10.4 | 0.00 | 0.00 | 0.00 | 57 | 1014.6 |
| 20260902173505 | 92 | 207 | 5.2 | 8.7 | 0.00 | 0.00 | 0.00 | 60 | 1014.9 |
| 20260902170505 | 90 | 205 | 3.5 | 8.7 | 0.00 | 0.00 | 0.00 | 64 | 1015.2 |
| 20260902170005 | 90 | 199 | 6.1 | 10.4 | 0.00 | 0.00 | 0.00 | 64 | 1015.1 |
| 20260902165005 | 89 | 213 | 5.2 | 10.4 | 0.00 | 0.00 | 0.00 | 67 | 1015.1 |
| 20260902164504 | 89 | 181 | 6.1 | 8.7 | 0.00 | 0.00 | 0.00 | 65 | 1015.3 |
| 20260902164005 | 89 | 195 | 4.3 | 6.1 | 0.00 | 0.00 | 0.00 | 66 | 1015.5 |
| 20260902163004 | 89 | 202 | 4.3 | 6.1 | 0.00 | 0.00 | 0.00 | 65 | 1015.4 |
| 20260902162505 | 89 | 227 | 2.6 | 6.1 | 0.00 | 0.00 | 0.00 | 67 | 1015.4 |
| 20260902162006 | 89 | 219 | 4.3 | 7.8 | 0.00 | 0.00 | 0.00 | 66 | 1015.3 |
| 20260902161005 | 87 | 202 | 5.2 | 8.7 | 0.00 | 0.00 | 0.00 | 69 | 1015.3 |
| 20260902155504 | 87 | 174 | 6.1 | 7.8 | 0.00 | 0.00 | 0.00 | 70 | 1015.2 |
| 20260902154504 | 87 | 213 | 2.6 | 6.1 | 0.00 | 0.00 | 0.00 | 71 | 1015.1 |
| 20260902154005 | 86 | 218 | 2.6 | 6.1 | 0.00 | 0.00 | 0.00 | 71 | 1015.0 |
| 20260902153004 | 86 | 243 | 3.5 | 6.1 | 0.00 | 0.00 | 0.00 | 72 | 1015.0 |
| 20260902152505 | 85 | 231 | 3.5 | 4.3 | 0.00 | 0.00 | 0.00 | 71 | 1015.0 |
| 20260902152005 | 85 | 224 | 1.7 | 2.6 | 0.00 | 0.00 | 0.00 | 73 | 1015.0 |
| 20260902150004 | 83 | 227 | 1.7 | 2.6 | 0.00 | 0.00 | 0.00 | 75 | 1015.0 |
| 20260902145504 | 82 | 187 | 1.7 | 4.3 | 0.00 | 0.00 | 0.00 | 76 | 1015.0 |
| 20260902144504 | 81 | 190 | 4.3 | 7.0 | 0.00 | 0.00 | 0.00 | 77 | 1015.0 |
| 20260902143504 | 82 | 181 | 4.3 | 6.1 | 0.00 | 0.00 | 0.00 | 77 | 1014.9 |
| 20260902143004 | 81 | 182 | 3.5 | 5.2 | 0.00 | 0.00 | 0.00 | 77 | 1014.9 |
| 20260902142504 | 81 | 181 | 2.6 | 5.2 | 0.00 | 0.00 | 0.00 | 78 | 1015.0 |
| 20260902142005 | 81 | 186 | 4.3 | 5.2 | 0.00 | 0.00 | 0.00 | 76 | 1015.0 |
| 20260902141504 | 81 | 184 | 2.6 | 5.2 | 0.00 | 0.00 | 0.00 | 77 | 1015.0 |
| 20260902141004 | 81 | 181 | 4.3 | 7.0 | 0.00 | 0.00 | 0.00 | 76 | 1015.1 |
| 20260902140504 | 80 | 194 | 2.6 | 4.3 | 0.00 | 0.00 | 0.00 | 78 | 1015.1 |
| 20260902140005 | 80 | 189 | 4.3 | 6.1 | 0.00 | 0.00 | 0.00 | 77 | 1015.1 |
| 20260902135504 | 80 | 168 | 4.3 | 7.0 | 0.00 | 0.00 | 0.00 | 77 | 1015.1 |
| 20260902135004 | 80 | 182 | 4.3 | 6.1 | 0.00 | 0.00 | 0.00 | 77 | 1015.1 |
| 20260902134504 | 80 | 189 | 2.6 | 4.3 | 0.00 | 0.00 | 0.00 | 79 | 1015.1 |
| 20260902134005 | 79 | 152 | 2.6 | 4.3 | 0.00 | 0.00 | 0.00 | 79 | 1015.1 |
| 20260902133004 | 78 | 154 | 2.6 | 4.3 | 0.00 | 0.00 | 0.00 | 81 | 1015.3 |
| 20260902132504 | 77 | 158 | 1.7 | 2.6 | 0.00 | 0.00 | 0.00 | 82 | 1015.5 |
| 20260902131504 | 76 | 194 | 0.9 | 2.6 | 0.00 | 0.00 | 0.00 | 84 | 1015.5 |
| 20260902131004 | 76 | 185 | 1.7 | 2.6 | 0.00 | 0.00 | 0.00 | 83 | 1015.5 |
| 20260902125005 | 76 | 152 | 2.6 | 2.6 | 0.00 | 0.00 | 0.00 | 83 | 1015.8 |
| 20260902124505 | 75 | 148 | 0.9 | 1.7 | 0.00 | 0.00 | 0.00 | 84 | 1015.9 |
| 20260902122004 | 72 | 218 | 1.7 | 2.6 | 0.00 | 0.00 | 0.00 | 89 | 1015.9 |
| 20260902121505 | 71 | 351 | 0.0 | 1.7 | 0.00 | 0.00 | 0.00 | 90 | 1015.7 |
| 20260902121005 | 71 | 351 | 0.0 | 1.7 | 0.00 | 0.00 | 0.00 | 89 | 1015.7 |
| 20260902115504 | 72 | 192 | 0.0 | 1.7 | 0.00 | 0.00 | 0.00 | 87 | 1015.9 |
| 20260902115004 | 72 | 192 | 0.9 | 2.6 | 0.00 | 0.00 | 0.00 | 87 | 1015.8 |
| 20260902114004 | 72 | 270 | 1.7 | 4.3 | 0.00 | 0.00 | 0.00 | 87 | 1016.0 |
| 20260902111004 | 71 | 150 | 2.6 | 2.6 | 0.00 | 0.00 | 0.00 | 88 | 1014.8 |
| 20260902110504 | 71 | 146 | 1.7 | 2.6 | 0.00 | 0.00 | 0.00 | 88 | 1014.8 |
| 20260902110007 | 71 | 163 | 2.6 | 2.6 | 0.00 | 0.00 | 0.00 | 88 | 1014.8 |
| 20260902105004 | 71 | 163 | 1.7 | 1.7 | 0.00 | 0.00 | 0.00 | 87 | 1014.8 |
| 20260902104004 | 71 | 163 | 1.7 | 2.6 | 0.00 | 0.00 | 0.00 | 87 | 1014.9 |
| 20260902103505 | 71 | 163 | 1.7 | 1.7 | 0.00 | 0.00 | 0.00 | 87 | 1014.9 |
| 20260902102504 | 71 | 163 | 1.7 | 2.6 | 0.00 | 0.00 | 0.00 | 87 | 1014.9 |
| 20260902101005 | 71 | 157 | 1.7 | 1.7 | 0.00 | 0.00 | 0.00 | 87 | 1014.9 |
| 20260902100504 | 71 | 154 | 0.9 | 2.6 | 0.00 | 0.00 | 0.00 | 87 | 1014.9 |
| 20260902100004 | 71 | 147 | 2.6 | 2.6 | 0.00 | 0.00 | 0.00 | 87 | 1014.8 |
| 20260902095504 | 71 | 151 | 1.7 | 2.6 | 0.00 | 0.00 | 0.00 | 87 | 1014.8 |
| 20260902092504 | 71 | 152 | 1.7 | 2.6 | 0.00 | 0.00 | 0.00 | 86 | 1015.1 |
| 20260902090504 | 72 | 162 | 1.7 | 1.7 | 0.00 | 0.00 | 0.00 | 85 | 1015.4 |
| 20260902085004 | 72 | 182 | 1.7 | 2.6 | 0.00 | 0.00 | 0.00 | 85 | 1015.4 |
| 20260902084504 | 72 | 184 | 0.9 | 1.7 | 0.00 | 0.00 | 0.00 | 85 | 1015.3 |
| 20260902083504 | 72 | 172 | 1.7 | 2.6 | 0.00 | 0.00 | 0.00 | 86 | 1015.1 |
| 20260902082504 | 72 | 181 | 0.9 | 1.7 | 0.00 | 0.00 | 0.00 | 85 | 1015.1 |
| 20260902082004 | 72 | 181 | 0.9 | 1.7 | 0.00 | 0.00 | 0.00 | 85 | 1015.1 |
| 20260902081504 | 72 | 181 | 0.9 | 1.7 | 0.00 | 0.00 | 0.00 | 85 | 1015.0 |
| 20260902081004 | 72 | 181 | 0.9 | 1.7 | 0.00 | 0.00 | 0.00 | 85 | 1014.9 |
| 20260902080004 | 73 | 181 | 1.7 | 2.6 | 0.00 | 0.00 | 0.00 | 85 | 1014.9 |
| 20260902075504 | 73 | 181 | 1.7 | 2.6 | 0.00 | 0.00 | 0.00 | 85 | 1014.8 |
| 20260902075004 | 73 | 208 | 0.9 | 2.6 | 0.00 | 0.00 | 0.00 | 84 | 1014.8 |
| 20260902074504 | 73 | 209 | 0.9 | 1.7 | 0.00 | 0.00 | 0.00 | 84 | 1014.9 |
| 20260902074004 | 73 | 198 | 0.9 | 1.7 | 0.00 | 0.00 | 0.00 | 85 | 1014.8 |
| 20260902073004 | 72 | 153 | 0.9 | 0.9 | 0.00 | 0.00 | 0.00 | 86 | 1014.7 |
| 20260902072504 | 72 | 153 | 0.9 | 1.7 | 0.00 | 0.00 | 0.00 | 86 | 1014.6 |
| 20260902072004 | 72 | 153 | 1.7 | 2.6 | 0.00 | 0.00 | 0.00 | 86 | 1014.4 |
| 20260902070504 | 73 | 169 | 0.9 | 2.6 | 0.00 | 0.00 | 0.00 | 85 | 1014.7 |
| 20260902070006 | 73 | 167 | 1.7 | 2.6 | 0.00 | 0.00 | 0.00 | 85 | 1014.7 |
| 20260902064504 | 73 | 190 | 0.9 | 2.6 | 0.00 | 0.00 | 0.00 | 85 | 1014.6 |
| 20260902062504 | 74 | 186 | 1.7 | 2.6 | 0.00 | 0.00 | 0.00 | 84 | 1014.8 |
| 20260902061004 | 74 | 188 | 1.7 | 4.3 | 0.00 | 0.00 | 0.00 | 84 | 1014.7 |
| 20260902060004 | 74 | 208 | 1.7 | 4.3 | 0.00 | 0.00 | 0.00 | 83 | 1014.8 |
| 20260902055503 | 75 | 217 | 2.6 | 4.3 | 0.00 | 0.00 | 0.00 | 83 | 1014.8 |
| 20260902054504 | 75 | 212 | 2.6 | 4.3 | 0.00 | 0.00 | 0.00 | 84 | 1014.7 |
| 20260902054004 | 75 | 186 | 3.5 | 7.0 | 0.00 | 0.00 | 0.00 | 84 | 1014.7 |
| 20260902053503 | 74 | 175 | 4.3 | 7.0 | 0.00 | 0.00 | 0.00 | 85 | 1014.7 |
| 20260902053003 | 74 | 182 | 4.3 | 6.1 | 0.00 | 0.00 | 0.00 | 85 | 1014.8 |
| 20260902052504 | 74 | 169 | 4.3 | 7.0 | 0.00 | 0.00 | 0.00 | 86 | 1014.8 |
| 20260902051503 | 74 | 166 | 2.6 | 5.2 | 0.00 | 0.00 | 0.00 | 87 | 1014.9 |
| 20260902051004 | 74 | 164 | 2.6 | 4.3 | 0.00 | 0.00 | 0.00 | 88 | 1014.9 |
| 20260902050504 | 74 | 163 | 1.7 | 2.6 | 0.00 | 0.00 | 0.00 | 87 | 1014.9 |
| 20260902050005 | 74 | 166 | 1.7 | 2.6 | 0.00 | 0.00 | 0.00 | 87 | 1015.0 |
| 20260902045503 | 75 | 179 | 1.7 | 2.6 | 0.00 | 0.00 | 0.00 | 87 | 1015.1 |
| 20260902045004 | 75 | 175 | 1.7 | 4.3 | 0.00 | 0.00 | 0.00 | 87 | 1015.0 |
| 20260902044504 | 75 | 184 | 1.7 | 2.6 | 0.00 | 0.00 | 0.00 | 88 | 1015.1 |
| 20260902043503 | 74 | 159 | 1.7 | 2.6 | 0.00 | 0.00 | 0.00 | 89 | 1015.0 |
| 20260902043005 | 74 | 177 | 0.9 | 2.6 | 0.00 | 0.00 | 0.00 | 88 | 1014.9 |
| 20260902042505 | 75 | 175 | 0.9 | 1.7 | 0.00 | 0.00 | 0.00 | 88 | 1014.8 |
| 20260902042005 | 75 | 175 | 0.9 | 1.7 | 0.00 | 0.00 | 0.00 | 88 | 1014.9 |
| 20260902041506 | 75 | 175 | 0.9 | 1.7 | 0.00 | 0.00 | 0.00 | 89 | 1014.9 |
| 20260902040506 | 75 | 166 | 0.9 | 2.6 | 0.00 | 0.00 | 0.00 | 88 | 1015.0 |
| 20260902035505 | 76 | 187 | 0.9 | 1.7 | 0.00 | 0.00 | 0.00 | 87 | 1015.0 |
| 20260902034006 | 76 | 187 | 0.9 | 1.7 | 0.00 | 0.00 | 0.00 | 86 | 1015.0 |
| 20260902033506 | 76 | 187 | 1.7 | 1.7 | 0.00 | 0.00 | 0.00 | 86 | 1015.0 |
| 20260902033006 | 77 | 187 | 1.7 | 2.6 | 0.00 | 0.00 | 0.00 | 86 | 1015.0 |
| 20260902032505 | 77 | 183 | 1.7 | 2.6 | 0.00 | 0.00 | 0.00 | 86 | 1014.9 |
| 20260902032005 | 77 | 187 | 1.7 | 2.6 | 0.00 | 0.00 | 0.00 | 86 | 1014.9 |
| 20260902031505 | 77 | 194 | 0.9 | 1.7 | 0.00 | 0.00 | 0.00 | 86 | 1014.8 |
| 20260902031006 | 77 | 165 | 0.9 | 1.7 | 0.00 | 0.00 | 0.00 | 86 | 1014.8 |
| 20260902030505 | 77 | 165 | 0.9 | 1.7 | 0.00 | 0.00 | 0.00 | 86 | 1014.7 |
| 20260902030005 | 77 | 164 | 1.7 | 2.6 | 0.00 | 0.00 | 0.00 | 87 | 1014.6 |
| 20260902025506 | 77 | 165 | 1.7 | 2.6 | 0.00 | 0.00 | 0.00 | 87 | 1014.6 |
| 20260902025006 | 77 | 170 | 0.9 | 2.6 | 0.00 | 0.00 | 0.00 | 87 | 1014.6 |
| 20260902024505 | 77 | 154 | 1.7 | 2.6 | 0.00 | 0.00 | 0.00 | 86 | 1014.6 |
| 20260902022006 | 78 | 182 | 1.7 | 4.3 | 0.00 | 0.00 | 0.00 | 84 | 1014.5 |
| 20260902020505 | 79 | 178 | 2.6 | 4.3 | 0.00 | 0.00 | 0.00 | 83 | 1014.5 |
| 20260902020006 | 79 | 178 | 2.6 | 4.3 | 0.00 | 0.00 | 0.00 | 83 | 1014.4 |
| 20260902015006 | 80 | 164 | 2.6 | 4.3 | 0.00 | 0.00 | 0.00 | 83 | 1014.4 |
| 20260902014505 | 80 | 161 | 2.6 | 4.3 | 0.00 | 0.00 | 0.00 | 83 | 1014.3 |
| 20260902012006 | 81 | 155 | 2.6 | 5.2 | 0.00 | 0.00 | 0.00 | 81 | 1014.2 |
| 20260902011005 | 81 | 142 | 2.6 | 2.6 | 0.00 | 0.00 | 0.00 | 81 | 1014.0 |
| 20260902005505 | 82 | 158 | 1.7 | 2.6 | 0.00 | 0.00 | 0.00 | 78 | 1014.0 |
| 20260902005006 | 83 | 158 | 1.7 | 4.3 | 0.00 | 0.00 | 0.00 | 78 | 1014.0 |
| 20260902004006 | 83 | 165 | 1.7 | 2.6 | 0.00 | 0.00 | 0.00 | 76 | 1014.0 |
| 20260902002005 | 85 | 183 | 1.7 | 2.6 | 0.00 | 0.00 | 0.00 | 72 | 1013.9 |
| 20260902000005 | 87 | 178 | 2.6 | 6.1 | 0.00 | 0.00 | 0.00 | 68 | 1014.1 |
| 20260901235505 | 87 | 184 | 2.6 | 6.1 | 0.00 | 0.00 | 0.00 | 68 | 1014.1 |
| 20260901235005 | 88 | 192 | 3.5 | 7.0 | 0.00 | 0.00 | 0.00 | 68 | 1014.2 |
| 20260901234505 | 88 | 195 | 5.2 | 8.7 | 0.00 | 0.00 | 0.00 | 68 | 1014.0 |
| 20260901234005 | 88 | 185 | 3.5 | 7.8 | 0.00 | 0.00 | 0.00 | 68 | 1014.0 |
| 20260901232005 | 90 | 182 | 4.3 | 7.0 | 0.00 | 0.00 | 0.00 | 66 | 1014.2 |